Wind_Speed
33 31 28 26 25 25 25 26 26 22 21 18 22 33 35 25 24 24 27 30 29 32 32 32 33 38 39 39 35 36 36 34 32 33 32 29 29 31 29 13 10 13 8 14
23 22 21 22 23 24 25 26 26 23 19 22 27 30 35 33 31 30 27 23 21 30 38 37 38 43 41 32 31 26 28 28 20 25 33 34 33 36 22 12 13 12 6 8
17 15 14 14 15 17 18 19 16 14 17 23 26 26 33 32 28 30 27 32 28 34 36 41 43 46 49 44 45 32 23 28 25 19 20 16 22 27 29 20 10 14 20 26
10 11 11 13 14 15 15 17 19 19 15 15 17 17 24 27 25 24 20 24 28 28 33 28 26 22 29 39 41 43 41 28 26 32 31 29 33 37 40 39 33 24 33 27
13 14 15 16 17 17 17 17 18 18 22 21 22 23 27 28 27 26 28 29 33 34 34 31 41 38 35 29 25 21 30 35 32 40 47 38 35 44 40 39 41 35 34 39
18 19 18 17 17 17 16 15 17 19 21 19 20 22 18 22 23 28 26 25 27 24 27 28 26 26 32 33 31 25 23 24 20 21 22 18 20 44 36 36 37 38 33 40
20 20 19 18 16 15 15 16 16 16 21 18 20 19 16 22 23 25 29 28 32 32 33 34 33 30 29 27 30 31 34 28 20 24 15 9 30 22 18 19 22 20 22 25
19 19 18 16 15 14 14 15 16 18 22 22 22 21 18 24 26 26 27 24 24 23 26 30 18 23 18 22 24 31 35 31 21 16 17 23 35 26 20 24 34 21 24 18
19 18 16 15 15 15 16 15 17 18 19 21 18 22 23 24 25 24 19 13 22 25 25 22 19 16 17 11 11 11 15 25 32 22 8 8 2 2 2 11 22 13 8 14
20 19 18 17 17 17 17 17 17 18 21 23 23 24 26 28 27 33 31 34 31 21 26 24 19 13 17 13 17 24 25 17 31 37 20 20 24 24 14 10 7 5 12 13
24 22 20 20 20 19 20 18 16 18 23 28 23 25 28 28 29 28 23 25 10 13 14 23 4 5 15 21 22 24 29 20 17 10 9 11 20 13 7 12 15 16 5 10
27 25 23 22 21 20 21 18 17 18 23 27 26 27 27 26 24 30 34 32 29 29 20 19 18 21 20 18 19 24 11 14 22 11 4 5 5 4 6 7 7 13 14 14
32 28 25 23 21 21 21 18 16 20 24 26 26 21 19 19 18 16 29 31 30 27 21 21 27 21 12 25 30 30 31 20 22 22 27 3 4 4 6 7 11 14 18 20
33 30 26 23 21 19 18 17 16 17 21 28 26 16 17 17 17 22 25 27 22 25 25 24 27 30 18 27 34 39 25 20 14 8 10 14 13 13 16 13 17 19 19 21
30 29 26 23 19 16 16 19 17 17 19 27 30 23 20 18 21 28 22 25 24 23 21 24 27 27 30 34 29 23 9 11 14 15 11 12 14 14 15 18 14 14 14 17
25 26 24 20 16 14 17 17 14 13 16 24 32 26 28 14 16 18 22 22 24 22 24 27 29 27 19 19 26 18 15 16 14 21 21 21 22 22 23 23 22 22 22 23
19 23 22 18 15 15 14 13 7 9 18 20 19 19 16 21 18 15 16 15 21 24 27 31 28 27 26 31 40 17 14 9 14 18 21 22 22 21 19 22 21 21 18 22
17 23 19 14 11 11 11 8 13 15 17 19 14 25 26 20 17 10 12 14 18 24 26 29 29 26 25 25 19 12 13 18 22 25 25 29 33 32 19 20 16 19 20 16
23 18 14 10 8 6 3 9 13 17 19 21 22 27 25 11 20 22 11 15 23 23 30 33 25 24 20 20 11 13 21 26 29 28 27 31 23 18 15 12 16 16 17 17
20 14 11 5 2 6 9 12 13 15 23 28 31 23 27 22 22 27 14 9 17 7 4 6 11 15 14 16 20 19 14 19 30 33 22 16 12 8 8 15 16 15 17 19
12 8 4 4 2 4 4 5 5 6 8 12 10 9 12 12 17 23 9 6 2 2 2 1 2 1 2 5 8 14 18 22 11 5 12 16 13 13 11 14 17 19 20 22
6 2 4 3 2 3 4 5 6 7 8 9 7 8 11 15 14 7 2 3 2 2 1 3 1 3 11 4 9 9 10 15 14 12 13 13 13 12 10 12 13 13 13 14
3 3 4 3 4 6 5 5 9 8 12 17 14 14 9 7 3 4 4 2 2 4 2 1 2 11 13 11 9 8 11 13 14 15 16 14 10 8 8 8 7 7 6 5
6 7 6 5 5 7 8 11 14 19 13 10 8 5 5 5 4 4 4 3 4 2 2 1 6 13 16 18 14 14 15 15 12 11 12 12 10 9 7 7 6 5 7 7
7 6 4 5 10 12 12 12 10 10 12 7 5 6 6 6 5 4 3 2 3 3 4 3 15 21 25 20 15 14 14 12 12 11 11 10 9 9 9 10 10 9 11 6
8 4 5 9 13 12 12 11 8 7 9 9 7 5 5 4 4 3 3 2 3 3 12 16 19 20 24 20 18 10 9 10 11 11 11 11 11 10 9 9 6 5 5 6
6 9 14 15 16 15 12 12 11 10 10 7 5 4 3 4 5 4 4 1 6 12 18 18 20 22 19 19 13 6 8 9 11 12 13 13 12 10 9 9 8 6 6 6
Wind_Direction
260 262 261 261 265 271 275 277 278 276 280 268 251 255 269 270 265 263 259 260 261 265 272 273 273 268 262 272 273 284 273 292 284 277 271 258 260 273 285 267 276 255 276 266
256 263 272 277 281 283 284 284 283 279 270 248 246 261 270 274 276 278 271 265 262 266 268 280 272 271 275 276 272 276 284 279 288 279 271 263 262 261 268 294 281 257 264 248
270 278 283 283 281 277 275 274 266 267 252 255 263 269 272 272 276 273 269 271 277 274 271 266 268 269 274 277 276 270 267 264 253 248 250 247 268 252 258 283 265 268 261 278
278 278 280 279 276 273 268 263 261 258 250 251 253 261 273 285 286 278 286 274 278 286 283 285 280 271 289 268 270 266 256 266 270 259 255 262 266 267 270 271 273 251 272 272
272 274 274 271 268 267 263 261 260 258 261 260 260 257 261 270 277 291 289 289 284 285 275 279 296 297 292 284 286 266 253 262 269 267 267 261 267 265 270 268 266 265 263 262
267 266 267 269 269 268 266 261 257 265 274 278 277 281 291 291 285 282 280 287 297 296 289 284 276 281 283 280 268 268 260 258 265 265 256 255 260 266 268 269 268 260 258 266
277 279 281 281 277 274 269 264 260 253 264 266 271 278 280 285 280 290 290 293 290 302 304 300 288 299 290 271 261 259 260 254 258 274 288 255 263 267 292 290 286 288 279 271
280 279 279 276 271 265 261 257 260 257 264 268 270 279 276 268 272 283 284 287 294 286 286 302 293 312 284 281 271 252 251 251 246 247 251 269 264 261 262 272 281 268 258 259
268 267 266 264 263 262 259 260 262 264 269 278 279 283 286 285 285 299 289 281 283 283 295 291 295 288 287 310 310 300 260 249 236 245 253 249 314 353 260 248 276 288 245 228
261 259 256 255 255 256 258 257 263 270 277 283 286 281 277 275 274 280 295 300 297 294 305 282 267 266 283 277 282 292 294 282 238 239 230 255 264 273 272 223 233 220 205 226
257 250 246 248 251 253 255 256 266 274 282 284 281 276 277 275 268 274 277 317 302 307 330 324 297 313 328 317 297 300 287 275 264 258 235 236 240 274 279 274 268 277 294 280
248 244 245 250 251 251 256 259 264 271 271 283 283 282 286 286 280 274 270 277 286 292 301 305 317 320 310 313 308 320 287 288 269 256 267 265 308 327 9 12 315 312 287 292
244 240 243 245 247 247 253 260 266 273 277 286 281 290 293 286 280 272 266 265 269 281 285 289 302 300 295 300 302 304 308 321 309 282 274 284 339 350 329 298 274 264 279 280
252 229 233 233 237 242 249 260 272 275 285 288 288 291 281 299 279 258 256 270 261 269 273 273 278 281 297 298 297 298 306 303 308 311 313 314 303 298 283 277 267 268 277 286
251 231 214 221 224 230 246 267 273 274 274 286 292 291 296 297 281 265 268 260 263 265 265 268 268 277 289 299 295 287 314 312 306 332 317 305 309 309 299 292 279 283 291 287
231 221 199 208 214 228 255 266 269 273 283 294 295 291 318 297 270 258 247 248 248 249 258 262 269 276 280 275 280 309 308 306 307 320 303 287 286 291 294 292 294 294 284 284
215 207 178 195 215 240 253 257 265 283 284 297 302 305 315 313 306 266 260 233 241 253 252 253 263 277 275 274 271 317 322 323 324 285 288 292 297 294 297 290 285 288 279 284
201 166 173 192 223 240 251 248 265 278 281 288 285 292 310 323 318 273 240 245 251 249 254 253 267 273 269 268 288 311 329 304 286 285 289 291 293 286 271 282 277 273 277 288
146 148 161 180 215 236 282 261 266 270 268 269 271 285 302 305 314 320 305 278 259 254 254 258 267 259 249 274 308 292 284 291 300 302 301 306 300 289 262 273 262 269 264 271
132 136 149 167 219 233 261 274 280 271 262 263 279 288 285 293 294 296 295 261 225 223 250 228 230 259 310 291 269 279 288 300 298 295 303 293 289 278 261 259 261 248 252 256
118 126 151 199 274 274 277 273 269 276 276 282 309 309 294 282 282 291 285 353 5 307 137 234 245 215 305 287 287 310 320 334 314 280 319 341 320 281 275 265 262 265 261 259
70 43 344 319 288 273 268 265 257 255 264 281 322 302 291 293 298 303 76 297 288 223 204 235 234 310 342 308 316 318 344 353 348 355 331 323 339 340 316 293 284 283 274 275
42 342 317 284 249 245 241 256 255 252 274 299 327 324 311 315 301 303 307 305 6 330 297 269 82 42 16 3 2 352 344 341 342 333 340 330 317 334 347 351 354 356 349 301
317 297 274 259 238 264 279 334 337 332 321 331 324 324 310 318 303 287 280 320 320 297 270 265 46 6 349 347 308 311 328 330 326 325 327 332 316 295 299 309 333 344 350 351
304 287 268 315 346 348 336 334 328 336 345 339 322 305 285 276 261 255 268 250 255 266 297 348 349 342 333 323 320 302 321 330 333 332 327 331 325 320 308 292 313 285 312 291
302 253 290 319 324 326 322 319 316 311 312 314 318 299 288 271 262 250 262 219 266 260 338 350 344 343 346 339 333 309 322 329 333 335 332 328 325 319 315 317 313 279 304 285
276 313 317 314 318 322 322 325 322 304 295 300 302 279 262 280 266 247 215 298 15 350 341 330 324 329 328 334 323 299 310 318 329 331 331 329 322 319 311 309 309 304 293 286
Height
3035 3037 3038 3038 3040 3041 3043 3043 3045 3045 3048 3052 3049 3046 3046 3051 3047 3050 3051 3050 3049 3046 3045 3041 3039 3034 3035 3034 3037 3032 3030 3028 3023 3023 3022 3024 3025 3022 3023 3019 3020 3018 3016 3014
3028 3029 3031 3031 3032 3033 3035 3036 3036 3038 3038 3041 3042 3044 3042 3043 3041 3042 3042 3040 3039 3039 3037 3036 3029 3023 3025 3028 3027 3025 3023 3018 3015 3013 3015 3015 3016 3016 3015 3013 3015 3012 3010 3005
3021 3022 3024 3027 3027 3028 3028 3030 3031 3032 3033 3032 3032 3035 3034 3034 3034 3033 3035 3031 3031 3030 3027 3026 3018 3016 3015 3017 3017 3020 3017 3009 3009 3008 3008 3009 3008 3007 3007 3008 3007 3004 3001 3001
3019 3019 3020 3023 3023 3023 3025 3025 3024 3026 3027 3028 3027 3028 3027 3027 3026 3027 3026 3022 3025 3022 3017 3014 3010 3008 3005 3004 3004 3005 3007 2998 3000 3001 3001 3002 3001 2998 2997 2997 2998 2997 2995 2997
3016 3015 3015 3017 3019 3018 3021 3020 3022 3020 3020 3024 3022 3021 3019 3020 3020 3020 3014 3017 3017 3016 3012 3008 3003 3003 2999 2998 2995 2995 2994 2991 2993 2990 2989 2993 2994 2986 2988 2988 2987 2989 2989 2985
3010 3011 3010 3011 3013 3013 3011 3013 3014 3013 3014 3017 3016 3017 3014 3013 3016 3011 3009 3007 3007 3007 3006 2999 2996 2994 2991 2990 2988 2989 2988 2987 2987 2981 2977 2984 2986 2973 2979 2978 2977 2979 2979 2975
3003 3003 3003 3005 3008 3008 3008 3008 3010 3010 3008 3009 3010 3009 3009 3010 3009 3005 3002 3002 3002 3003 2998 2991 2989 2986 2981 2980 2978 2980 2980 2981 2983 2978 2980 2978 2967 2973 2973 2971 2968 2972 2971 2971
2997 2998 2996 2999 3002 3004 3006 3005 3005 3003 3003 3004 3004 3003 3003 2999 2999 2998 2998 2997 2995 2993 2991 2987 2982 2978 2974 2968 2968 2968 2970 2973 2976 2973 2970 2966 2961 2967 2968 2968 2959 2966 2965 2966
2990 2990 2992 2992 2996 2999 3002 3001 3000 2999 3000 3000 2999 2997 2996 2993 2993 2992 2991 2991 2991 2990 2986 2984 2980 2979 2973 2967 2961 2960 2963 2967 2969 2970 2969 2963 2960 2961 2960 2961 2958 2958 2959 2960
2982 2983 2986 2988 2991 2995 2996 2996 2995 2995 2995 2994 2993 2992 2990 2989 2990 2987 2986 2984 2984 2985 2981 2977 2975 2972 2973 2968 2964 2962 2961 2962 2958 2951 2959 2956 2955 2957 2957 2958 2961 2955 2957 2955
2975 2978 2980 2982 2986 2988 2989 2990 2990 2990 2987 2985 2987 2987 2985 2985 2985 2983 2984 2982 2980 2979 2975 2976 2970 2970 2969 2965 2961 2960 2957 2958 2955 2951 2952 2948 2950 2954 2955 2953 2954 2951 2954 2954
2966 2970 2973 2977 2980 2982 2982 2985 2986 2985 2982 2979 2980 2980 2980 2979 2978 2978 2979 2978 2979 2978 2978 2976 2972 2969 2966 2964 2958 2955 2953 2952 2951 2952 2949 2949 2948 2949 2950 2947 2949 2949 2951 2951
2957 2962 2967 2970 2974 2976 2978 2979 2979 2980 2977 2973 2971 2972 2974 2972 2971 2972 2970 2970 2973 2974 2976 2974 2971 2969 2966 2962 2957 2952 2947 2944 2944 2944 2942 2944 2945 2946 2947 2946 2948 2948 2947 2948
2948 2953 2960 2964 2968 2971 2973 2974 2974 2974 2973 2968 2965 2965 2964 2965 2963 2963 2962 2962 2966 2968 2969 2969 2968 2966 2962 2958 2956 2952 2948 2944 2940 2938 2939 2942 2941 2942 2942 2943 2942 2942 2941 2941
2940 2945 2953 2959 2963 2967 2969 2969 2970 2970 2971 2965 2960 2959 2960 2957 2955 2955 2957 2958 2959 2961 2963 2962 2961 2960 2960 2955 2950 2943 2942 2941 2937 2939 2941 2939 2939 2940 2939 2938 2939 2937 2937 2937
2936 2940 2948 2956 2961 2964 2964 2965 2966 2966 2966 2961 2954 2953 2951 2949 2947 2947 2949 2951 2954 2957 2957 2956 2955 2957 2958 2950 2941 2938 2940 2939 2938 2937 2936 2934 2933 2934 2933 2932 2931 2930 2930 2930
2933 2939 2947 2954 2958 2959 2961 2964 2965 2964 2963 2961 2954 2947 2947 2947 2945 2943 2944 2946 2948 2951 2951 2948 2949 2951 2953 2947 2937 2936 2936 2937 2935 2932 2931 2930 2929 2927 2927 2926 2925 2924 2924 2924
2933 2940 2948 2953 2956 2957 2958 2961 2962 2962 2960 2959 2953 2946 2944 2943 2940 2939 2941 2942 2943 2943 2944 2944 2945 2947 2946 2936 2933 2935 2933 2932 2930 2928 2927 2924 2920 2919 2920 2919 2919 2919 2919 2920
2938 2945 2949 2952 2954 2955 2959 2959 2958 2958 2959 2954 2949 2946 2943 2941 2939 2936 2936 2937 2936 2937 2935 2936 2941 2939 2937 2933 2934 2933 2930 2927 2924 2921 2919 2916 2913 2911 2912 2913 2914 2914 2914 2915
2944 2948 2951 2953 2955 2956 2956 2956 2955 2952 2951 2946 2941 2943 2939 2942 2939 2936 2933 2928 2928 2928 2929 2929 2931 2931 2932 2931 2930 2928 2926 2924 2920 2915 2914 2911 2909 2907 2908 2908 2909 2909 2909 2910
2950 2953 2954 2955 2955 2955 2955 2955 2953 2950 2947 2942 2939 2938 2937 2938 2935 2932 2931 2929 2929 2928 2930 2930 2931 2931 2929 2929 2928 2926 2923 2920 2915 2913 2910 2908 2905 2905 2905 2904 2904 2904 2904 2904
2954 2955 2955 2955 2955 2955 2954 2952 2951 2948 2944 2940 2938 2937 2935 2934 2933 2930 2931 2930 2930 2929 2930 2930 2930 2930 2929 2926 2926 2924 2922 2919 2915 2911 2909 2907 2905 2903 2902 2900 2899 2899 2898 2898
2956 2956 2956 2956 2956 2953 2951 2949 2947 2945 2943 2940 2939 2937 2937 2935 2933 2933 2932 2930 2930 2930 2929 2929 2929 2928 2927 2926 2924 2922 2920 2917 2914 2912 2908 2905 2904 2902 2901 2899 2898 2897 2896 2895
2958 2957 2955 2954 2952 2949 2946 2947 2944 2942 2941 2940 2939 2937 2937 2935 2935 2933 2932 2931 2930 2929 2928 2928 2926 2925 2924 2923 2920 2919 2917 2914 2912 2909 2907 2904 2902 2901 2899 2898 2898 2897 2896 2895
2958 2956 2954 2951 2952 2950 2949 2947 2945 2944 2942 2939 2939 2937 2936 2935 2934 2932 2931 2931 2929 2929 2928 2926 2925 2923 2920 2918 2916 2914 2913 2911 2909 2907 2905 2903 2901 2899 2897 2897 2896 2895 2895 2895
2955 2953 2953 2952 2951 2949 2947 2945 2943 2942 2941 2939 2938 2937 2935 2933 2932 2931 2929 2930 2929 2928 2924 2923 2922 2920 2917 2914 2912 2911 2910 2909 2907 2906 2904 2901 2900 2898 2896 2895 2894 2894 2894 2894
2953 2952 2950 2949 2947 2945 2944 2942 2940 2939 2938 2938 2937 2936 2934 2933 2931 2928 2928 2926 2924 2924 2923 2922 2920 2918 2915 2913 2911 2909 2908 2907 2905 2903 2901 2899 2897 2896 2895 2894 2893 2892 2892 2892